FENGYUN 1C DEB

Satellite information

Favourite Embed

Satellite Type and Status

DEBRISIN ORBIT

Key statistics

Satellite FENGYUN 1C DEB at a glance.

Uptime

9715

Days in orbit

Revolutions

≈ 14.0

Per day

Orbit

SSO

Sun Synchronous Orbit

Inclination

98.7

Latest

Satellite identification and parameters

Extended collection of information and parameters for FENGYUN 1C DEB.

Object identification

Identified? True

Debris? True

Object name: FENGYUN 1C DEB

International designator: 1999-025DGN

Object number (NORAD): 33701

Object ID (CCSDS): 33701

Country: PEOPLES REPUBLIC OF CHINA (PRC)

Current information (Y/N): Y

RCS size: SMALL

Orbital parameters

Period: 102.697 minutes

Inclination: 98.6598 deg

SMA: 7264.389 km

Apoapsis: 983.015 km

Periapsis: 789.493 km

RAAN: 279.346 deg

Eccentricy: 0.01331995

Argument of periapsis: 252.9525 deg

Mean anomaly: 105.7013 deg

Mean motion: 14.02181122 rev/day

Mean motion (dot): 0.00003003 rev/day2

B* drag term: 0.0018411078 1/REarth

Two-line elements (TLE)

Creation date: Nov. 20, 2025, 2:25 a.m.

Reference frame: TEME

Reference center: EARTH

Epoch: Nov. 19, 2025, 7:29 p.m. UTC

TLE line 0: 0 FENGYUN 1C DEB

TLE line 1: 1 33701U 99025DGN 25323.81243613 .00003003 00000-0 18411-2 0 9995

TLE line 2: 2 33701 98.6598 279.3460 0133199 252.9525 105.7013 14.02181122901849

Live tracking on map

Real-time ground track for satellite FENGYUN 1C DEB.

In-orbit conjunctions

A list of the most updated potential collisions computed for object FENGYUN 1C DEB.

Target Orbit TCA Probability of collision Miss distance Type
CZ-6A DEB LEO 2025-01-12 09:32:32 0.0002076573 645.0 (m) DEBRIS
SL-8 R/B LEO 2024-11-10 15:13:31 0.0001384424 100.0 (m) ROCKET BODY
TATIANA LEO 2024-09-16 12:24:45 0.0001168815 706.0 (m) PAYLOAD

Associated space launch

Chinese polar orbiting meteorological satellite

FENGYUN 1C DEB was lifted into orbit during the mission ‘Long March 4B | Feng Yun 1C’, on board a Long March 4B space rocket.

The launch took place on May 10, 1999, 1:33 a.m. from Launch Complex 7.

For more information about the launch, click the button.

Launch to space Long March 4B | Feng Yun 1C
Long March 4B | Feng Yun 1C

Agency: N/A

Status: Launch Successful

Launch date: May 10, 1999, 1:33 a.m. UTC

Rocket: Long March 4B

Launch pad: Launch Complex 7

Location: Taiyuan Satellite Launch Center, People's Republic of China

...

Latest news about this satellite

There are no fresh news available about this satellite. Check back as we update our databases every day.


Newsletter sign-up

Weekly statistics, charts and insights to help you stay on top of the space industry.